Location: Koz?y
(51.4865°N, 17.8530°E)
Time: 04:54:00
(UTC+00:00)

Daily predictions for brighter satellites

Satellite Brightness Start Highest point End
(mag) Time Altitude Azimuth Time Altitude Azimuth Time Altitude Azimuth
CZ-3B R/B 4.3 00:57:50 45° ENE 00:57:50 45° ENE 01:09:10 10° E
SL-16 R/B 4.3 01:46:11 18° N 01:46:11 18° N 01:48:15 10° NNE
Cosmos 1980 Rocket 4.4 01:41:58 13° N 01:45:11 20° NE 01:49:18 10° E
CENTAUR R/B 3.9 01:48:26 27° SE 01:49:40 29° ESE 01:55:28 10° NE
ADEOS II 4.1 01:46:48 10° N 01:48:31 21° N 01:48:31 21° N
Tsikada Rocket 4.4 01:58:07 56° NNE 01:58:07 56° NNE 02:02:57 10° NNE
ARIANE 5 R/B 4.1 01:53:26 10° NNE 01:55:49 29° NNE 01:55:49 29° NNE
Resurs 1-4 Rocket 4.4 01:59:08 10° N 01:59:56 14° N 01:59:56 14° N
CZ-2D R/B 4.4 02:11:38 10° N 02:12:13 12° NNW 02:12:13 12° NNW
USA 238 DEB 3.9 02:19:35 54° SSE 02:20:43 61° SE 02:27:32 10° NE
USA 238 3.9 02:19:39 53° SSE 02:20:49 61° SE 02:27:38 10° NE
Cosmos 2142 Rocket 4.5 02:17:08 10° N 02:23:24 80° E 02:29:42 10° SSE
NOSS 3-2 (A) 3.5 02:24:30 65° SSE 02:24:56 68° SE 02:31:33 10° NE
CZ-2C R/B 3.6 02:20:49 10° NNE 02:25:34 40° E 02:27:57 24° SSE
Lacrosse 4 Rocket 3.2 02:31:40 25° ESE 02:32:04 25° ESE 02:35:27 10° ENE
GP-B 4.0 02:33:18 45° NNE 02:33:18 45° NNE 02:36:39 10° N
Cosmos 1302 Rocket 4.2 02:31:42 48° N 02:33:05 68° ENE 02:38:21 10° SE
Cosmos 1048 Rocket 4.2 02:34:49 67° N 02:34:49 67° N 02:39:31 10° NNE
Spot 4 Rocket 4.4 02:29:19 10° NNE 02:33:20 55° N 02:33:20 55° N
Cosmos 1025 Rocket 3.7 02:37:27 54° ENE 02:37:27 54° ENE 02:41:12 10° NNE
IDEFIX/ARIANE 42P 3.3 02:32:10 10° N 02:35:46 42° N 02:35:46 42° N
USA 234 3.3 02:33:32 10° ENE 02:40:00 65° NNW 02:41:14 55° WNW
Cosmos 1674 4.0 02:41:37 37° ESE 02:41:50 38° E 02:45:24 10° NNE
Meteor 1-16 Rocket 4.0 02:36:42 10° N 02:42:03 80° ENE 02:47:22 10° SSE
Cosmos 494 Rocket 3.9 02:42:46 79° SSE 02:43:02 83° ESE 02:48:21 10° NNE
Geosat 4.0 02:39:24 10° SE 02:44:24 78° ENE 02:45:43 50° NNW
Cosmos 2279 Rocket 3.8 02:42:51 10° NNW 02:49:05 80° W 02:55:17 10° S
SL-16 R/B 4.4 02:46:07 10° NNW 02:50:21 21° NE 02:54:32 10° E
Cosmos 1656 3.5 02:49:55 60° NW 02:50:58 78° WSW 02:56:39 10° SSE
ADEOS Rocket 2.6 02:49:29 10° S 02:54:58 76° WSW 03:00:37 10° NNW
Cosmos 2344 3.5 02:56:53 40° SW 02:59:59 87° NW 03:08:22 10° NE
Lacrosse 5 rocket 3.4 03:00:14 15° SSE 03:01:36 18° SE 03:04:13 10° E
COSMOS 2406 3.9 02:59:31 12° S 03:04:37 52° ESE 03:10:07 10° NE
Cosmos 1697 Rocket 2.7 03:03:55 17° NNW 03:08:25 85° ENE 03:14:05 10° SSE
CREW DRAGON DEMO-1 DEB 4.2 03:11:10 39° E 03:11:10 39° E 03:13:13 10° E
Cosmos 1536 Rocket 3.4 03:11:55 47° SSW 03:13:12 82° W 03:17:43 10° N
Cosmos 220 Rocket 4.4 03:09:54 16° NNW 03:13:27 64° ENE 03:17:51 10° SE
Cosmos 1992 Rocket 4.4 03:08:54 10° NNW 03:14:06 63° ENE 03:19:17 10° SE
FENGYUN 3A 4.2 03:17:56 10° NNE 03:23:20 60° E 03:28:42 10° S
NOSS 3-2 (C) 3.4 03:21:46 31° SW 03:24:47 87° NW 03:31:35 10° NE
MSX 4.2 03:20:24 10° N 03:25:43 41° WNW 03:26:51 37° W
CBERS 1 LM4 rocket 4.3 03:22:13 10° NNE 03:27:15 87° WNW 03:32:04 10° SSW
CZ-4B R/B 1.3 03:25:28 10° S 03:28:56 80° WSW 03:30:17 35° NNW
Cosmos 44 Rocket 3.8 03:29:13 39° WSW 03:29:33 40° WSW 03:34:21 10° S
SL-16 R/B 4.4 03:28:40 10° NNW 03:30:10 11° N 03:31:41 10° N
Cosmos 1980 Rocket 2.4 03:24:35 10° NNW 03:30:12 72° ENE 03:35:48 10° SE
ADEOS II 4.1 03:28:14 10° NNW 03:29:26 13° NNW 03:29:26 13° NNW
Cosmos 1400 Rocket 3.7 03:27:08 10° N 03:31:01 49° ENE 03:34:49 10° SSE
PSLV R/B 3.6 03:30:49 10° N 03:34:59 51° WNW 03:36:14 38° WSW
ARIANE 5 R/B 4.0 03:33:28 10° N 03:36:09 19° NW 03:36:09 19° NW
CENTAUR R/B 2.6 03:35:39 25° SW 03:39:36 78° NW 03:47:02 10° NE
Cosmos 2360 4.1 03:35:07 10° NNW 03:40:49 73° WSW 03:46:28 10° SSE
Intercosmos 24 3.6 03:36:41 10° NNW 03:40:55 77° W 03:44:27 10° S
SKYMED 2 3.8 03:37:54 10° SSE 03:42:13 70° ENE 03:46:34 10° N
ERS-2 3.0 03:45:06 10° SSW 03:47:31 30° SW 03:47:31 30° SW
Cosmos 1461 4.1 03:46:02 10° SSW 03:50:23 47° ESE 03:54:56 10° NE
KORONAS-FOTON 4.3 03:51:42 30° WSW 03:52:54 39° WNW 03:56:35 10° N
SAR-Lupe-4 3.5 03:51:13 10° S 03:54:44 57° WSW 03:58:18 10° NNW
Cosmos 967 Rocket 4.5 03:49:43 13° NW 03:55:21 60° WSW 04:01:30 10° SSE
Cosmos 2278 3.6 03:50:48 10° NNW 03:56:30 77° WSW 04:02:07 10° SSE
ALOS 2.2 03:51:51 10° N 03:56:33 75° WNW 04:01:13 10° SSW
Cosmos 1092 Rocket 4.1 03:51:51 10° S 03:58:01 84° E 04:04:18 10° N
SL-14 R/B 3.2 03:54:29 10° SSW 03:58:28 84° W 04:02:31 10° N
Cosmos 1315 Rocket 4.4 03:56:09 10° N 04:00:01 38° ENE 04:03:53 10° SE
Aureole 3 3.6 03:56:27 10° N 04:00:16 81° E 04:05:07 10° SSE
Cosmos 2322 Rocket 3.5 03:55:16 10° NNW 04:00:35 38° NE 04:05:50 10° ESE
CZ-3 R/B 4.5 03:45:08 10° WSW 04:00:36 22° SSW 04:07:21 10° SSE
CZ-2C R/B 3.1 03:59:12 10° N 04:03:43 34° WNW 04:07:18 14° WSW
Nadezhda 4 Rocket 4.0 03:58:30 10° SSW 04:04:31 60° WNW 04:10:38 10° N
Cosmos 1300 2.7 04:01:35 10° NNW 04:05:22 57° W 04:09:06 10° S
Cosmos 1726 Rocket 3.5 04:01:29 10° NNW 04:05:54 63° W 04:10:18 10° S
ADEOS 3.5 04:01:16 10° N 04:06:28 64° WNW 04:11:36 10° SSW
Abrixas rocket 3.0 04:06:51 25° SW 04:07:43 30° SSW 04:10:16 10° SE
PSLV R/B 3.9 04:05:02 10° S 04:09:15 73° WSW 04:13:29 10° NNW
ISS -2.4 04:07:10 12° SW 04:09:59 35° SSE 04:13:06 10° E
Lacrosse 4 Rocket 1.6 04:08:01 20° WSW 04:10:32 45° NW 04:14:29 10° NNE
Cosmos 1833 Rocket 2.6 04:06:03 10° SW 04:11:41 72° WNW 04:17:22 10° NNE
USA 238 DEB 4.0 04:07:03 18° W 04:11:57 49° NNW 04:18:46 10° NE
USA 238 4.0 04:07:08 18° W 04:12:02 49° NNW 04:18:52 10° NE
Cosmos 1689 Rocket 2.1 04:09:12 10° S 04:12:05 51° W 04:14:58 10° NNW
SAR-Lupe-1 4.5 04:09:03 10° S 04:12:25 39° W 04:15:49 10° NNW
Meteor 2-13 Rocket 4.4 04:07:40 10° SSW 04:13:49 71° WNW 04:19:59 10° N
USA 290 2.6 04:11:07 10° SSW 04:14:18 67° ESE 04:17:33 10° NNE
Cosmos 1025 Rocket 4.4 04:14:23 18° WNW 04:14:53 19° WNW 04:18:01 10° NNW
Cosmos 1484 Rocket 3.1 04:11:30 10° N 04:15:14 43° WNW 04:18:52 10° SW
IDEFIX/ARIANE 42P 4.3 04:13:34 10° NNW 04:15:57 13° NW 04:16:34 13° WNW
NOSS 3-2 (A) 4.1 04:11:55 18° W 04:16:14 43° NNW 04:22:55 10° NE
Meteor 1-24 Rocket 3.7 04:11:06 10° SSW 04:16:44 79° WNW 04:22:38 10° N
Cosmos 1674 3.9 04:16:30 19° W 04:17:30 22° WNW 04:20:30 10° NNW
Cosmos 2228 3.6 04:14:53 10° NNW 04:18:52 36° W 04:22:53 10° SSW
Cosmos 2369 4.2 04:14:09 10° NW 04:19:20 37° WSW 04:24:28 10° S
Meteor 2-10 Rocket 3.7 04:15:18 10° N 04:20:21 75° ENE 04:25:24 10° SSE
Cosmos 1606 Rocket 4.1 04:16:42 10° NNW 04:20:50 37° W 04:24:57 10° SSW
CZ-4B R/B 2.8 04:18:13 10° NNE 04:22:12 85° WNW 04:26:21 10° SSW
USA 234 3.6 04:16:16 10° E 04:22:38 56° N 04:28:35 12° WNW
H-2A R/B 3.8 04:21:33 10° NNE 04:25:16 50° E 04:29:01 10° S
ATLAS 3B R/B 2.7 04:19:07 10° SW 04:25:41 82° SE 04:32:25 10° NE
Cosmos 1626 2.7 04:23:08 10° SW 04:26:31 33° WNW 04:29:55 10° N
METEOR-M 4.2 04:21:18 10° N 04:26:33 57° WNW 04:31:45 10° SW
Cosmos 2082 Rocket 2.2 04:24:33 10° SSW 04:30:11 85° WNW 04:35:51 10° NNE
COSMO-SKYMED 1 3.0 04:26:15 10° S 04:30:22 41° W 04:34:31 10° NNW
Meteor 2-1 Rocket 4.4 04:25:55 10° N 04:31:36 80° ENE 04:37:21 10° SSE
SL-16 R/B 2.5 04:29:48 10° NNW 04:35:30 71° ENE 04:41:10 10° SE
Meteor 1-31 Rocket 3.5 04:35:36 10° N 04:39:11 34° WNW 04:42:45 10° SW
Lacrosse 5 rocket 1.1 04:36:32 10° WSW 04:40:13 90° ESE 04:44:07 10° ENE
Meteor 2-5 Rocket 4.1 04:34:50 10° SW 04:40:17 44° WNW 04:45:52 10° N
Cosmos 2333 Rocket 4.1 04:36:28 10° NNW 04:41:07 25° NE 04:45:44 10° E
ADEOS Rocket 4.3 04:39:18 10° WSW 04:41:38 13° W 04:44:01 10° WNW
ATLAS CENTAUR R/B 4.4 04:40:02 10° SSE 04:42:30 16° ESE 04:44:55 10° ENE
Meteor PRIRODA 3.7 04:41:08 10° N 04:44:42 52° WNW 04:48:16 10° SSW
CREW DRAGON DEMO-1 DEB 3.2 04:42:58 12° W 04:45:41 51° SSW 04:48:37 10° SE
Cosmos 1553 Rocket 3.9 04:39:58 10° NNW 04:46:07 72° W 04:52:09 10° S
Okean 1-7 Rocket 3.7 04:44:27 10° SSW 04:48:56 60° WNW 04:53:26 10° N
COSMOS 2406 3.8 04:43:56 10° WSW 04:49:09 36° NW 04:54:24 10° NNE
deb Chang Zheng 4 4.4 04:46:19 10° N 04:49:55 28° WNW 04:53:32 10° WSW
Cosmos 2058 Rocket 3.7 04:46:35 10° NNW 04:50:44 37° W 04:54:50 10° SSW
PSLV R/B 3.9 04:47:09 10° NNE 04:51:19 89° W 04:55:25 10° SSW
Cosmos 1697 Rocket 4.0 04:47:48 10° WNW 04:51:40 19° W 04:55:33 10° SW
Cosmos 2237 Rocket 4.4 04:49:06 10° N 04:52:21 15° NNE 04:55:35 10° ENE
Spot 2 4.2 04:49:35 10° NNE 04:54:02 84° WNW 04:58:45 10° SSW
Cosmos 1455 2.2 04:50:56 10° NNW 04:54:48 76° W 04:58:40 10° S
Cosmos 2292 Rocket 3.5 04:52:54 10° S 04:56:00 63° E 04:59:46 10° NNE
Cosmos 2026 Rocket 4.3 04:56:00 10° SSW 05:02:09 49° WNW 05:08:21 10° N
Cosmos 2360 Rocket 2.9 04:57:14 10° NNW 05:02:47 56° NE 05:08:18 10° SE
